Flag for Germany Weather past 2 weeks in Germering, Bavaria, Germany

Now
50 °F

Light rain. Partly sunny.


Feels Like: 42 °F
Forecast: 42 / 48 °F
Wind: 30 mph from Southwest

Location: Landsberg

Current Time: Mar 29, 2015 at 3:43:24 PM

Latest Report: Mar 29, 2015 at 2:20 PM


Visibility: N/A

Pressure: 29.80 "Hg

Humidity: 71%

Dew point: 41 °F

Location of GermeringLocation

Historic Weather in Germering — Graph

°F

Germering temperature yesterday

Maximum temperature yesterday: 54 °F (at 4:20 PM)
Minimum temperature yesterday: 36 °F (at 5:20 AM)
Average temperature yesterday: 44 °F

Past Weeks' High & Low Weather Summary

 TemperatureHumidityPressure
High61 °F (Mar 17, 1:20 PM)100% (Mar 15, 7:20 AM)30.24 "Hg (Mar 15, 7:20 AM)
Low28 °F (Mar 20, 3:20 AM)31% (Mar 17, 1:20 PM)29.53 "Hg (Mar 25, 2:20 PM)
Average42 °F72%30.02 "Hg
* Reported Mar 14 1:20 PM — Mar 29 2:20 PM, Germering, Weather by CustomWeather, © 2015

Note: Actual official high and low records may vary slightly from our data, if they occured in-between our weather recording intervals... More about our weather records

Advertising

Germering weather history for previous 24 hours

 ConditionsComfort  
Time TempWeatherWind HumidityBarometerVisibility
2:20 PM
Sun, Mar 29
50 °FLight rain. Partly sunny.30 mph71%29.80 "HgN/A
1:20 PM52 °FPartly sunny.30 mph62%29.80 "HgN/A
12:20 PM52 °FBroken clouds.30 mph62%29.83 "HgN/A
11:20 AM50 °FPartly sunny.29 mph67%29.86 "HgN/A
10:20 AM48 °FPartly sunny.25 mph76%29.89 "HgN/A
9:20 AM48 °FBroken clouds.23 mph71%29.89 "HgN/A
8:20 AM46 °FBroken clouds.16 mph82%29.89 "HgN/A
7:20 AM46 °FPartly cloudy.22 mph82%29.92 "HgN/A
6:20 AM46 °FPassing clouds.18 mph82%29.95 "HgN/A
5:20 AM46 °FPartly cloudy.16 mph82%29.95 "HgN/A
4:20 AM45 °FLight rain. Partly cloudy.13 mph87%29.98 "HgN/A
3:20 AM45 °FMostly cloudy.15 mph87%29.98 "HgN/A
1:20 AM45 °FLight rain. Passing clouds.14 mph81%30.01 "HgN/A
12:20 AM45 °FMostly cloudy.13 mph81%30.01 "HgN/A
11:20 PM
Sat, Mar 28
43 °FLight rain. Passing clouds.16 mph87%30.04 "HgN/A
10:20 PM43 °FLight rain. Passing clouds.17 mph81%30.04 "HgN/A
9:20 PM43 °FLight rain. Passing clouds.14 mph81%30.04 "HgN/A
8:20 PM46 °FLight rain. Partly cloudy.22 mph66%30.04 "HgN/A
7:20 PM50 °FPassing clouds.7 mph47%30.04 "HgN/A
6:20 PM50 °FPartly sunny.10 mph43%30.04 "HgN/A
5:20 PM52 °FScattered clouds.12 mph38%30.04 "HgN/A
4:20 PM54 °FPassing clouds.13 mph38%30.04 "HgN/A
3:20 PM52 °FPassing clouds.13 mph41%30.07 "HgN/A
Weather by CustomWeather, © 2015

See weather overviewHow to use our weather pages